Flag for Canada Weather past 2 weeks in Norfolk, Ontario, Canada

Now
48 °F

Cool.


Feels Like: 43 °F
Forecast: N/A
Wind: 13 mph from Southwest

Location: Delhi CS

Current Time: Dec 27, 2014 at 6:04:56 PM

Latest Report: Dec 27, 2014 at 5:00 PM


Visibility: N/A

Pressure: 29.96 "Hg

Humidity: 69%

Dew point: 39 °F

Location of NorfolkLocation

Historic Weather in Norfolk — Graph

°F

Norfolk temperature yesterday

Maximum temperature yesterday: 43 °F (at 3:00 PM)
Minimum temperature yesterday: 34 °F (at 4:00 AM)
Average temperature yesterday: 38 °F

Past Weeks' High & Low Weather Summary

 TemperatureHumidityPressure
High53 °F (Dec 24, 7:00 PM)100% (Dec 12, 7:00 PM)30.33 "Hg (Dec 12, 7:00 PM)
Low16 °F (Dec 20, 5:00 AM)57% (Dec 27, 3:00 PM)29.18 "Hg (Dec 24, 8:00 PM)
Average34 °F90%30.01 "Hg
* Reported Dec 12 4:00 PM — Dec 27 4:00 PM, Norfolk, Weather by CustomWeather, © 2014

Note: Actual official high and low records may vary slightly from our data, if they occured in-between our weather recording intervals... More about our weather records

Advertising

Norfolk weather history for previous 24 hours

 ConditionsComfort  
Time TempWeatherWind HumidityBarometerVisibility
4:00 PM
Dec 27
47 °FCool.10 mph69%29.96 "HgN/A
3:00 PM50 °FCool.9 mph57%29.95 "HgN/A
2:00 PM50 °FCool.9 mph66%29.96 "HgN/A
1:00 PM47 °FCool.9 mph78%29.99 "HgN/A
12:00 PM44 °FQuite cool.7 mph92%30.06 "HgN/A
11:00 AM45 °FQuite cool.7 mph79%30.10 "HgN/A
10:00 AM43 °FQuite cool.7 mph80%30.11 "HgN/A
9:00 AM40 °FQuite cool.6 mph86%30.11 "HgN/A
8:00 AM39 °FChilly.6 mph83%30.12 "HgN/A
7:00 AM40 °FQuite cool.6 mph89%30.13 "HgN/A
6:00 AM40 °FChilly.3 mph90%30.12 "HgN/A
5:00 AM40 °FChilly.5 mph91%30.12 "HgN/A
4:00 AM39 °FChilly.5 mph92%30.12 "HgN/A
3:00 AM39 °FChilly.3 mph92%30.13 "HgN/A
2:00 AM37 °FChilly.5 mph95%30.13 "HgN/A
1:00 AM38 °FChilly.3 mph94%30.12 "HgN/A
12:00 AM39 °FChilly.3 mph84%30.13 "HgN/A
11:00 PM
Dec 26
39 °FChilly.3 mph88%30.14 "HgN/A
10:00 PM40 °FChilly.5 mph87%30.12 "HgN/A
9:00 PM39 °FChilly.3 mph88%30.12 "HgN/A
8:00 PM39 °FChilly.3 mph86%30.12 "HgN/A
7:00 PM40 °FChilly.5 mph85%30.13 "HgN/A
6:00 PM40 °FChilly.7 mph82%30.13 "HgN/A
Weather by CustomWeather, © 2014

See weather overviewHow to use our weather pages